This demonstration page uses our WeatherBlox Daily Observations layout. Learn more.

Left ArrowRight Arrow

Hourly Observations for August 22, 2019

Temp ( °F °C ) Dew Point ( °F °C ) Humidity (%) Winds ( mph kmh ) Pressure ( in mb ) Visibility ( mi km ) Precip ( " mm )
12:59 am 00:59 Partly Cloudy 81 27.2 75 23.9 82 82 SSW 7 11 29.98 1015 10 16 0.00 0.00
1:59 am 01:59 Partly Cloudy 80 26.7 75 23.9 85 85 SW 7 11 29.97 1015 10 16 0.00 0.00
2:59 am 02:59 Partly Cloudy 79 26.1 72 22.2 79 79 WSW 6 9 29.96 1015 10 16 0.00 0.00
3:59 am 03:59 Partly Cloudy 79 26.1 68 20 69 69 WSW 13 20 29.95 1014 10 16 0.00 0.00
4:59 am 04:59 Partly Cloudy 77 25 68 20 74 74 SW 9 15 29.94 1014 10 16 0.00 0.00
5:59 am 05:59 Partly Cloudy 76 24.4 68 20 77 77 WSW 7 11 29.96 1015 10 16 0.00 0.00
6:59 am 06:59 Partly Cloudy 76 24.4 69 20.6 79 79 SW 8 13 30.00 1016 10 16 0.00 0.00
7:59 am 07:59 Mostly Sunny 77 25 70 21.1 79 79 SSW 9 15 30.01 1016 10 16 0.00 0.00
8:59 am 08:59 Mostly Sunny 80 26.7 72 22.2 76 76 WSW 8 13 30.02 1017 10 16 0.00 0.00
9:59 am 09:59 Partly Cloudy 81 27.2 73 22.8 77 77 WSW 8 13 30.01 1016 10 16 0.00 0.00
10:59 am 10:59 Partly Cloudy 85 29.4 74 23.3 70 70 WSW 7 11 30.00 1016 10 16 0.00 0.00
11:59 am 11:59 Partly Cloudy 88 31.1 76 24.4 68 68 SW 7 11 29.99 1016 10 16 0.00 0.00
12:59 pm 12:59 Partly Cloudy 89 31.7 76 24.4 65 65 W 7 11 29.98 1015 10 16 0.00 0.00
1:59 pm 13:59 Partly Cloudy 92 33.3 76 24.4 60 60 WSW 7 11 29.98 1015 10 16 0.00 0.00
2:59 pm 14:59 Partly Cloudy 93 33.9 75 23.9 56 56 WSW 7 11 29.96 1015 10 16 0.00 0.00
3:59 pm 15:59 Partly Cloudy 91 32.8 78 25.6 66 66 E 7 11 29.93 1014 10 16 0.00 0.00
4:39 pm 16:39 Partly Cloudy with Thunderstorms 89 31.7 76 24.4 65 65 E 6 9 29.92 1013 10 16 0.00 0.00
4:59 pm 16:59 Mostly Cloudy with Thunderstorms 88 31.1 76 24.4 68 68 ENE 6 9 29.93 1013 10 16 0.00 0.00
5:59 pm 17:59 Mostly Cloudy with Thunderstorms 88 31.1 77 25 70 70 SE 9 15 29.94 1014 10 16 0.00 0.00
6:59 pm 18:59 Mostly Cloudy with Thunderstorms 83 28.3 77 25 82 82 SSW 3 6 29.94 1014 10 16 0.00 0.00
7:59 pm 19:59 Cloudy with Thunderstorms 75 23.9 70 21.1 84 84 S 10 17 29.95 1014 10 16 0.00 0.00
8:59 pm 20:59 Mostly Cloudy with Thunderstorms 74 23.3 72 22.2 94 94 S 10 17 30.02 1017 9 14 0.00 0.00
9:14 pm 21:14 Mostly Cloudy 74 23.3 72 22.2 94 94 S 8 13 30.01 1016 10 16 0.00 0.00
9:59 pm 21:59 Mostly Cloudy 75 23.9 72 22.2 90 90 S 6 9 29.99 1016 10 16 0.00 0.00
10:59 pm 22:59 Mostly Cloudy 75 23.9 72 22.2 90 90 SSW 13 20 29.98 1015 10 16 0.00 0.00
11:59 pm 23:59 Mostly Cloudy 76 24.4 72 22.2 88 88 SSW 9 15 29.97 1015 10 16 0.00 0.00

Powered by AerisWeather